Probability
68 74 68 74 68 74 68 68 68 58 55 42 26 23 13 13 6 6 6 6 3 3 6 3 0 3 3 6 0 10 6 6 6 6 6 10 13 13 19 19 13 16 19
65 68 71 61 58 52 52 58 61 42 42 39 35 26 16 10 6 6 3 3 3 3 0 0 0 0 0 0 0 0 3 0 0 0 6 3 13 16 10 16 26 16 19
42 45 39 35 45 52 42 23 42 48 42 29 26 13 23 13 0 3 3 3 0 0 0 0 0 0 0 0 0 0 0 0 0 0 0 0 0 3 6 3 6 6 19
13 19 26 23 29 39 42 42 42 42 48 42 23 0 10 6 0 0 0 0 0 0 0 0 0 0 0 0 0 0 0 0 0 0 0 3 3 0 0 0 0 3 3
16 23 26 32 32 32 35 45 48 48 52 42 32 29 10 6 0 0 0 0 0 0 0 0 0 0 0 0 0 0 0 0 0 0 0 0 0 0 0 3 3 0 0
13 16 23 39 48 45 48 48 52 58 52 39 26 19 16 13 6 6 0 0 0 0 0 0 0 0 0 0 0 0 0 0 0 0 0 0 0 0 0 0 0 6 3
10 19 26 26 45 48 48 39 45 39 29 26 23 16 13 10 6 6 3 0 0 0 0 0 0 0 0 0 0 0 0 0 0 0 0 0 0 0 0 0 0 0 3
10 10 23 32 39 23 26 16 19 23 13 16 10 10 6 3 3 0 0 0 0 0 0 0 0 0 0 0 0 0 0 0 0 0 0 0 0 0 0 0 0 0 0
3 0 3 10 16 10 13 10 10 3 3 3 3 3 3 0 0 0 0 0 0 0 0 0 0 0 0 0 0 0 0 0 0 0 0 0 0 0 0 0 0 0 0
3 0 0 3 3 10 10 6 6 3 3 3 3 0 0 0 0 0 0 0 0 0 0 0 0 0 0 0 0 0 0 0 0 0 0 0 0 0 0 0 0 0 0
0 0 0 0 6 6 6 3 3 3 3 0 0 0 0 0 0 0 0 0 0 0 0 0 0 0 0 0 0 0 0 0 0 0 0 0 0 0 0 0 0 0 0
0 0 0 0 0 0 0 0 0 0 0 0 0 0 0 0 0 0 0 0 0 0 0 0 0 0 0 0 0 0 0 0 0 0 0 0 0 0 0 0 0 0 0
0 0 0 0 0 0 0 0 0 0 0 0 0 0 0 0 0 0 0 0 0 0 0 0 0 0 0 0 0 0 0 0 0 0 0 0 0 0 0 0 0 0 0
3 3 3 0 0 0 0 0 0 0 0 0 0 0 0 0 0 0 0 0 0 0 0 0 0 0 0 0 0 0 0 0 0 0 0 0 0 0 0 0 0 0 0
3 3 0 0 0 0 0 0 0 0 0 0 0 0 0 0 0 0 0 0 0 0 0 0 0 0 0 0 0 0 0 0 0 0 0 0 0 0 0 0 0 0 0
0 0 0 0 0 0 0 0 0 0 0 0 0 0 0 0 0 0 0 0 0 0 0 0 0 0 0 0 0 0 0 0 0 0 0 0 0 0 0 0 0 0 0
0 0 0 0 0 0 0 0 0 0 0 0 0 0 0 0 0 0 0 0 0 0 0 0 0 0 0 0 0 0 0 0 0 0 0 0 0 0 0 0 0 0 0
0 0 0 0 0 0 0 0 0 0 0 0 0 0 0 0 0 0 0 0 0 0 0 0 0 0 0 0 0 0 0 0 0 0 0 0 0 0 0 0 0 0 0
0 0 0 0 0 0 0 0 0 0 0 0 0 0 0 0 0 0 0 0 0 0 0 0 0 0 0 0 0 0 0 0 0 0 0 0 0 0 0 0 0 0 0
0 0 0 0 0 0 0 0 0 0 0 0 0 0 0 0 0 0 0 0 0 0 0 0 0 0 0 0 0 0 0 0 0 0 0 0 0 0 0 0 0 0 0
0 0 0 0 0 0 0 0 0 0 0 0 0 0 0 0 0 0 0 0 0 0 0 0 0 0 0 0 0 0 0 0 0 0 0 0 0 0 0 0 0 0 0
0 0 0 0 0 0 0 0 0 0 0 0 0 0 0 0 0 0 0 0 0 0 0 0 0 0 0 0 0 0 0 0 0 0 0 0 0 0 0 0 0 0 0
0 0 0 0 0 0 0 0 0 0 0 0 0 0 0 0 0 0 0 0 0 0 0 0 0 0 3 0 0 0 0 0 0 0 0 0 0 0 0 0 0 0 0
0 0 0 0 0 0 0 0 0 0 0 0 0 0 0 0 0 0 0 0 0 0 0 0 0 0 6 3 0 0 0 0 0 0 0 0 0 0 0 0 0 0 3
0 0 0 0 0 0 0 0 0 0 0 0 0 0 0 0 0 0 0 0 0 0 0 0 0 0 0 0 0 0 0 0 0 0 0 0 0 0 0 0 0 0 0
0 0 0 0 0 0 0 0 0 0 0 0 0 0 0 0 0 0 0 0 0 0 0 0 0 0 0 0 0 0 0 0 0 0 0 0 0 0 0 0 0 0 0
Height
5870 5870 5870 5870 5869 5868 5868 5867 5866 5864 5862 5861 5859 5857 5854 5852 5850 5847 5845 5843 5841 5839 5837 5835 5834 5832 5831 5830 5830 5829 5828 5828 5827 5827 5827 5828 5828 5828 5829 5830 5832 5833 5835
5866 5867 5867 5867 5866 5865 5865 5864 5862 5861 5859 5857 5854 5852 5849 5847 5844 5842 5839 5837 5834 5832 5830 5828 5827 5825 5824 5823 5822 5821 5820 5819 5819 5819 5819 5819 5820 5820 5820 5821 5823 5824 5826
5864 5864 5864 5864 5863 5863 5862 5860 5858 5856 5854 5852 5850 5847 5844 5841 5838 5836 5833 5831 5828 5826 5824 5822 5820 5818 5816 5815 5814 5813 5812 5811 5810 5810 5810 5810 5811 5811 5812 5813 5814 5816 5817
5862 5862 5861 5861 5861 5860 5859 5857 5855 5852 5850 5847 5845 5842 5839 5836 5833 5830 5827 5824 5822 5819 5817 5815 5813 5811 5809 5807 5806 5805 5804 5802 5802 5801 5801 5801 5801 5802 5802 5803 5805 5806 5808
5860 5860 5859 5859 5858 5857 5855 5853 5851 5849 5846 5843 5840 5837 5834 5831 5828 5825 5822 5819 5816 5813 5811 5808 5806 5804 5802 5800 5798 5796 5795 5794 5793 5792 5792 5792 5792 5792 5793 5794 5795 5796 5799
5858 5858 5857 5856 5855 5854 5852 5850 5848 5845 5842 5839 5836 5833 5830 5826 5823 5820 5816 5813 5810 5807 5804 5802 5799 5797 5794 5792 5790 5788 5786 5785 5783 5782 5782 5782 5782 5782 5783 5784 5785 5786 5788
5857 5856 5855 5854 5853 5851 5849 5847 5845 5842 5839 5835 5832 5829 5825 5821 5818 5814 5811 5807 5804 5801 5798 5795 5792 5789 5786 5784 5781 5779 5777 5775 5774 5772 5771 5771 5771 5772 5773 5774 5775 5776 5778
5855 5854 5853 5852 5850 5849 5846 5844 5841 5838 5835 5831 5828 5824 5821 5817 5813 5809 5806 5802 5798 5795 5791 5788 5784 5781 5778 5775 5772 5769 5767 5765 5763 5762 5761 5760 5760 5760 5761 5763 5765 5766 5768
5853 5852 5851 5849 5848 5846 5843 5840 5837 5834 5831 5827 5824 5820 5816 5812 5808 5804 5800 5796 5792 5788 5784 5780 5777 5773 5770 5766 5763 5760 5757 5754 5752 5751 5750 5749 5749 5749 5750 5751 5753 5756 5758
5851 5850 5848 5846 5844 5842 5840 5837 5834 5830 5827 5823 5819 5815 5811 5807 5803 5799 5795 5790 5786 5781 5777 5773 5768 5764 5760 5757 5753 5750 5747 5744 5741 5740 5738 5737 5737 5737 5738 5740 5741 5744 5746
5849 5847 5845 5843 5841 5839 5836 5833 5830 5826 5822 5818 5814 5810 5806 5802 5797 5793 5788 5783 5779 5774 5769 5764 5760 5755 5751 5747 5743 5739 5736 5733 5730 5728 5727 5726 5725 5726 5726 5728 5730 5732 5735
5846 5844 5842 5840 5838 5835 5832 5829 5825 5821 5817 5813 5809 5805 5800 5796 5791 5786 5781 5776 5771 5766 5761 5756 5751 5746 5741 5737 5732 5728 5725 5722 5719 5717 5715 5714 5714 5714 5714 5716 5717 5720 5723
5843 5841 5839 5836 5834 5831 5828 5824 5820 5816 5812 5808 5803 5799 5794 5790 5785 5779 5774 5769 5763 5758 5752 5747 5741 5736 5731 5726 5721 5717 5713 5710 5707 5705 5703 5702 5701 5702 5702 5703 5705 5708 5711
5839 5837 5835 5832 5830 5826 5823 5819 5815 5811 5806 5802 5798 5793 5788 5783 5778 5772 5767 5761 5755 5749 5743 5737 5732 5726 5720 5715 5710 5706 5702 5698 5695 5692 5690 5689 5688 5689 5689 5690 5693 5695 5698
5835 5833 5831 5828 5825 5822 5818 5814 5810 5805 5801 5796 5792 5787 5782 5776 5771 5765 5759 5753 5747 5740 5734 5728 5721 5715 5709 5704 5699 5694 5690 5686 5682 5679 5677 5676 5675 5675 5676 5677 5680 5682 5686
5831 5829 5826 5823 5820 5816 5813 5808 5804 5800 5795 5791 5786 5781 5775 5770 5764 5758 5751 5745 5738 5731 5724 5718 5711 5704 5698 5693 5688 5682 5678 5673 5670 5667 5664 5662 5662 5662 5662 5664 5665 5668 5672
5826 5824 5821 5818 5815 5811 5807 5803 5799 5794 5790 5785 5780 5774 5769 5763 5756 5750 5743 5736 5729 5722 5715 5707 5701 5694 5687 5682 5676 5671 5666 5661 5657 5654 5651 5649 5648 5648 5648 5649 5651 5654 5657
5821 5819 5816 5813 5809 5806 5801 5797 5793 5788 5784 5779 5773 5768 5762 5755 5749 5742 5735 5728 5720 5712 5705 5697 5690 5683 5677 5671 5665 5659 5654 5649 5645 5641 5638 5635 5634 5633 5633 5634 5636 5639 5643
5816 5813 5810 5807 5804 5800 5795 5791 5787 5782 5778 5772 5767 5761 5755 5748 5741 5734 5726 5719 5711 5703 5695 5688 5680 5673 5666 5660 5654 5648 5642 5637 5633 5629 5625 5622 5620 5619 5619 5620 5622 5624 5628
5810 5808 5804 5801 5797 5793 5789 5785 5781 5776 5771 5766 5760 5754 5747 5740 5733 5725 5718 5710 5702 5693 5685 5678 5670 5663 5656 5650 5643 5637 5631 5626 5622 5617 5613 5609 5607 5605 5604 5605 5607 5610 5613
5804 5801 5798 5794 5791 5787 5782 5778 5774 5769 5764 5758 5752 5746 5739 5732 5725 5717 5709 5701 5693 5684 5676 5668 5661 5654 5646 5640 5633 5627 5621 5616 5611 5607 5602 5598 5595 5593 5591 5592 5593 5596 5599
5797 5794 5791 5787 5783 5779 5775 5771 5767 5762 5756 5751 5744 5738 5731 5723 5716 5708 5700 5691 5683 5675 5667 5659 5652 5644 5637 5630 5624 5618 5612 5607 5602 5597 5593 5589 5585 5582 5580 5580 5581 5583 5586
5790 5787 5783 5779 5775 5771 5767 5763 5758 5753 5747 5742 5736 5729 5722 5714 5706 5698 5690 5682 5674 5666 5659 5651 5643 5636 5628 5622 5615 5610 5604 5599 5594 5589 5585 5580 5576 5573 5571 5570 5570 5572 5575
5782 5778 5775 5771 5767 5763 5758 5754 5749 5744 5738 5733 5727 5720 5712 5705 5697 5689 5681 5673 5665 5658 5650 5643 5635 5628 5620 5614 5607 5601 5596 5591 5586 5582 5577 5573 5568 5565 5562 5561 5561 5562 5565
5773 5770 5766 5762 5758 5753 5749 5744 5740 5734 5729 5723 5717 5710 5703 5696 5688 5680 5672 5664 5657 5650 5643 5635 5628 5621 5613 5607 5600 5594 5589 5584 5579 5575 5570 5566 5562 5558 5555 5553 5553 5554 5557
5764 5760 5757 5752 5748 5744 5739 5734 5729 5724 5719 5713 5707 5700 5693 5686 5678 5671 5663 5655 5649 5641 5634 5627 5621 5613 5606 5600 5594 5588 5582 5577 5573 5569 5564 5560 5556 5553 5549 5548 5547 5548 5550
Wind_Speed
17 16 14 13 13 12 12 13 14 14 15 16 17 18 19 20 22 22 23 23 24 24 25 26 26 27 28 29 30 31 31 32 32 33 33 33 34 34 34 34 34 34 33
14 13 12 12 11 11 11 12 13 14 15 17 18 20 21 22 23 23 23 24 24 24 25 25 25 26 27 28 28 29 30 31 31 32 33 33 34 35 35 35 35 35 35
10 9 9 9 9 10 12 13 15 16 17 19 20 21 22 23 23 24 24 24 24 24 25 24 25 26 27 28 28 29 29 30 31 31 32 33 34 35 36 36 37 36 36
5 6 7 8 9 11 13 15 16 18 20 21 22 22 23 23 24 24 24 24 24 24 24 24 25 26 27 28 28 29 30 31 32 32 33 33 34 35 36 36 37 38 37
5 6 8 9 11 13 15 17 18 19 20 21 22 22 23 23 24 24 24 24 24 24 24 25 26 26 27 28 29 30 31 31 32 33 34 34 35 35 36 37 38 38 39
6 8 10 11 13 15 16 18 19 20 20 21 21 22 23 23 23 23 23 24 24 25 25 25 26 27 28 29 30 30 31 32 33 34 35 36 36 37 37 37 39 39 39
8 10 12 13 14 16 17 19 20 20 21 21 21 22 22 23 23 23 24 24 25 25 25 26 26 27 28 29 30 31 32 33 34 35 36 37 38 38 38 38 39 40 40
10 12 13 14 15 17 18 19 20 20 21 21 22 22 22 23 23 23 24 24 25 26 26 27 27 28 29 30 31 32 33 34 35 36 37 37 38 39 39 39 39 40 40
12 13 15 15 16 17 18 19 20 20 21 21 21 22 22 22 22 23 24 25 26 27 27 28 29 29 30 31 32 33 34 34 35 36 36 37 38 39 39 40 40 40 41
13 15 16 17 17 18 18 19 20 20 21 21 21 22 22 23 23 24 26 26 27 28 29 30 31 31 32 32 33 34 34 35 35 36 36 37 38 39 39 40 40 40 41
14 15 16 16 17 17 18 19 20 20 21 21 22 23 23 24 25 27 28 29 30 31 31 32 33 33 34 34 34 35 35 35 35 35 36 37 38 38 39 40 41 41 41
15 15 16 16 17 17 18 19 20 21 21 22 23 24 25 26 28 29 30 31 32 33 34 34 35 35 36 36 36 35 35 35 35 36 36 37 38 38 39 40 41 42 42
15 15 15 16 17 18 19 20 21 21 22 23 24 25 27 28 30 31 32 33 34 35 36 37 37 37 37 37 37 36 36 36 36 36 36 37 38 39 40 41 41 42 43
15 15 15 16 17 19 20 21 22 22 23 24 25 27 29 31 32 33 34 35 37 37 38 39 39 39 38 38 38 37 37 36 36 37 37 38 39 39 40 42 42 43 44
14 15 16 17 18 20 21 22 23 24 25 26 27 29 31 33 34 35 37 38 39 40 40 40 40 40 39 39 38 37 37 37 37 37 37 37 38 39 40 42 43 44 45
15 16 17 18 20 21 22 23 24 25 26 27 29 31 33 35 36 37 39 40 41 41 42 42 41 41 40 39 38 38 37 37 36 36 36 37 37 38 40 42 43 45 46
16 17 18 20 21 22 23 24 25 26 27 29 31 33 35 36 38 39 40 41 42 43 43 42 42 41 40 39 38 37 37 36 36 36 36 37 37 38 40 42 43 45 47
17 18 20 21 22 24 25 25 26 27 29 30 32 34 36 38 39 41 42 43 44 44 43 43 42 40 39 39 38 37 37 36 35 35 36 36 37 38 39 40 42 44 46
18 20 21 23 24 25 26 26 27 28 30 31 33 35 37 39 41 43 44 45 45 44 44 43 41 40 39 38 38 37 36 35 35 35 35 35 36 37 38 40 41 43 44
20 22 23 25 26 27 27 27 28 29 31 33 35 37 39 41 42 44 45 45 45 44 44 42 41 40 39 38 37 36 35 33 33 33 33 33 33 35 37 38 39 41 42
22 24 25 27 27 28 29 29 30 30 32 34 37 39 41 43 44 46 46 46 45 44 43 41 40 39 38 36 35 34 33 31 30 30 29 29 30 31 32 33 35 38 40
25 26 28 29 29 29 30 31 31 33 35 37 39 41 43 45 46 47 47 46 45 44 42 40 39 38 37 36 34 33 31 29 28 27 27 27 27 28 28 29 32 35 37
28 29 30 31 31 32 32 33 34 35 37 39 41 43 45 46 47 48 47 46 44 43 41 40 38 37 36 35 33 31 29 28 27 26 26 26 26 25 25 26 29 32 35
32 32 33 34 34 34 34 35 36 37 39 42 44 45 47 47 48 48 47 46 44 42 40 39 38 37 36 34 32 30 28 26 26 25 24 24 23 23 23 23 25 28 31
34 35 36 37 37 38 38 38 38 40 43 45 46 47 48 49 48 48 47 46 44 42 40 39 38 36 35 33 31 29 27 25 24 23 23 22 21 21 20 20 20 23 27
37 38 40 40 40 42 42 41 42 43 45 47 48 49 50 49 48 48 46 45 43 41 39 38 37 36 34 32 29 28 27 25 23 22 21 20 19 18 17 16 17 20 24
Wind_Direction
266 271 277 284 288 293 297 299 301 302 303 305 305 305 305 304 302 301 299 296 294 292 289 286 283 281 280 278 277 275 274 272 270 268 266 265 263 262 260 259 258 256 253
264 270 277 287 292 296 301 306 310 311 310 310 309 309 308 306 305 302 301 299 297 294 291 288 285 282 281 280 279 277 275 273 271 268 266 265 264 262 260 259 257 255 252
264 279 288 296 301 304 310 316 317 316 314 313 312 311 309 308 307 305 303 301 299 297 295 292 288 286 284 282 280 278 277 275 273 271 268 264 263 263 261 258 257 254 252
277 300 307 311 311 314 318 319 318 317 316 314 313 312 312 310 310 308 307 305 303 300 297 294 292 290 288 286 283 281 279 277 274 272 269 266 262 260 260 258 256 254 251
310 319 320 322 320 319 319 319 318 317 314 312 311 311 311 311 311 310 309 307 305 302 299 297 294 292 290 288 285 283 281 278 275 273 269 266 262 260 257 257 256 254 251
322 324 325 323 321 319 318 317 315 314 313 312 311 312 313 313 313 311 310 308 307 305 303 300 297 295 292 290 287 285 282 279 276 274 271 268 264 260 257 255 254 254 251
326 325 322 320 319 317 316 314 314 314 313 312 313 315 315 314 313 313 312 311 310 308 305 302 300 298 295 293 290 286 283 280 277 274 271 269 266 262 258 255 252 252 251
324 322 320 317 316 315 314 313 313 313 313 314 315 315 315 315 314 314 314 313 312 310 308 305 303 301 298 295 292 289 285 282 278 275 272 269 266 263 259 256 253 250 249
317 317 315 313 312 311 311 312 313 314 315 315 316 317 317 317 317 317 316 314 313 312 310 308 306 304 301 298 295 291 288 284 280 276 273 269 265 262 259 256 253 250 247
310 311 311 310 309 308 310 312 314 315 315 316 318 320 320 319 319 319 318 317 316 314 312 310 307 305 303 300 297 293 288 285 281 277 273 270 266 262 259 256 253 250 247
305 306 307 307 307 307 309 311 315 317 318 319 320 322 322 322 321 321 320 319 318 316 314 311 309 306 304 302 298 294 291 286 282 279 274 270 266 263 259 255 252 249 246
301 302 303 306 307 309 312 315 319 320 321 322 323 324 324 323 323 322 321 320 318 317 315 313 310 307 305 302 299 296 292 287 283 279 275 270 266 262 259 255 252 249 246
300 301 303 306 309 312 315 319 321 323 324 325 325 325 325 324 324 323 322 321 319 318 316 314 311 308 305 303 301 297 294 289 284 280 276 271 267 262 258 255 252 249 245
301 302 305 308 311 315 319 322 323 324 325 326 326 326 326 325 324 324 323 322 320 319 317 315 312 309 307 304 302 299 295 291 286 281 277 272 267 263 259 255 252 249 245
302 304 306 310 314 318 322 324 325 326 326 326 326 326 326 325 325 324 323 322 320 319 318 316 313 311 308 306 303 300 296 293 288 283 278 273 269 264 259 255 252 248 245
302 305 308 312 315 319 322 324 325 326 326 326 326 326 326 326 325 325 324 323 321 320 318 316 314 312 309 307 304 301 298 295 290 285 280 275 270 265 260 256 252 248 245
303 307 310 313 316 319 321 323 324 324 324 325 325 326 326 326 326 325 324 323 322 321 319 317 315 313 311 309 306 303 300 296 291 287 282 277 272 267 262 257 253 249 245
303 307 310 313 316 319 320 321 322 323 324 325 325 326 327 327 327 327 326 324 323 321 320 318 316 314 313 311 308 305 302 297 293 289 285 280 274 269 264 259 254 249 245
303 306 309 313 315 317 318 319 320 321 322 323 325 326 327 328 328 327 327 325 324 322 321 319 317 316 314 313 311 307 304 300 296 292 289 283 276 271 265 259 254 249 245
303 306 309 312 314 315 315 316 318 319 321 322 325 326 327 328 328 328 327 326 325 324 321 320 319 317 316 314 312 310 307 303 300 296 292 287 279 273 267 260 254 248 244
303 306 308 310 312 313 314 314 316 318 320 322 324 326 327 327 328 328 327 327 326 325 323 321 321 320 318 316 315 312 310 306 303 300 296 291 284 278 269 261 252 247 242
303 305 307 308 310 312 312 313 314 316 319 321 323 324 325 326 327 328 327 327 327 325 324 323 322 322 320 318 317 314 312 308 306 302 299 295 289 282 272 262 252 246 241
303 305 306 307 308 310 310 311 313 315 318 321 323 324 325 325 327 328 328 328 327 326 325 325 324 324 322 320 318 315 313 311 307 304 302 299 293 287 276 265 256 247 240
302 304 305 305 306 307 308 310 312 314 317 320 321 322 323 324 325 327 327 327 327 326 325 325 325 325 324 323 320 316 314 312 311 308 306 303 297 291 280 270 259 247 237
301 302 303 302 303 304 304 305 308 311 314 317 319 321 322 323 324 325 326 326 326 325 325 325 326 326 325 324 322 319 315 312 311 310 309 306 302 297 287 273 258 245 235
299 300 300 299 299 301 301 302 306 309 311 314 317 318 320 321 322 324 325 325 324 324 324 324 325 326 326 324 323 322 318 313 312 311 310 310 309 303 292 276 260 243 231